Regional Weather Roundup
Issued by NWS Grand Forks, ND

Home | Current Version | Previous Version | Text Only | Print | Product List | Glossary Off
Versions: 1 2 3 4 5 6 7 8 9 10 11 12 13 14 15 16 17 18 19 20 21 22 23 24 25 26 27 28 29 30 31 32 33 34 35 36 37 38 39 40 41 42 43 44 45 46 47 48 49 50

797
ASUS43 KFGF 241410
RWRFGF
PRAIRIE TO PINES  WEATHER ROUNDUP
NATIONAL WEATHER SERVICE EASTERN NORTH DAKOTA/GRAND FORKS ND
900 AM CDT SAT JUN 24 2017

 **SATELLITE DATA USED TO AUGMENT SKY COVER AT AUTOMATED STATIONS**
 *****  WEATHER ACROSS EASTERN NORTH DAKOTA  *****

CITY           SKY/WX    TMP DP  RH WIND       PRES   REMARKS
GRAND FORKS    PTSUNNY   56  47  71 NW16G24   30.00R
GRAND FRKS AFB FAIR      55  46  73 NW14G20   30.00S
DEVILS LAKE    PTSUNNY   51  42  71 NW22      30.06R
FARGO          LGT RAIN  52  48  86 NW15      30.02R
WAHPETON ARPT  FAIR      54  41  62 NW15      30.04R
$$

 ***** WEATHER ACROSS CENTRAL AND WESTERN NORTH DAKOTA  *****

CITY           SKY/WX    TMP DP  RH WIND       PRES   REMARKS
BISMARCK       FAIR      55  40  56 NW17G26   30.16R
MINOT          FAIR      50  40  68 NW16      30.15R
JAMESTOWN      FAIR      53  43  68 NW21G26   30.07R
MINOT AFB      FAIR      50  39  66 NW20      30.15R
GARRISON         N/A     47  39  74 NW23G30   30.17R
WILLISTON      FAIR      52  38  58 N18G28    30.26R
DICKINSON      FAIR      52  33  48 NW17G25   30.21R
HETTINGER      FAIR      56  32  40 NW18      30.24R
$$

 *****  OTHER AIRPORT OBSERVATIONS IN OUR AREA  *****

CITY           SKY/WX    TMP DP  RH WIND       PRES   REMARKS
WALHALLA       NOT AVBL
GRAFTON AIRPOR   N/A     54  46  76 NW15G21   30.01R
VALLEY CITY AR PTSUNNY   52  46  82 NW17G23   30.07R
CANDO          NOT AVBL
CAVALIER APRT  CLOUDY    52  45  76 W13G21    29.98S
GWINNER        NOT AVBL
SHEYENNE NWR     N/A     54  44  68 NW10      29.95S
ROLLA          NOT AVBL
 ***** THE ABOVE OBSERVATIONS ARE NON NWS ARE NOT QUALITY
       CONTROLLED AND MAY MIS-REPORT RAIN FOR SNOW...
$$

  *****  WEATHER ACROSS NORTHERN MINNESOTA  *****

CITY           SKY/WX    TMP DP  RH WIND       PRES   REMARKS
FLAG ISLAND    CLOUDY    52  46  82 W16G24    29.89S
WARROAD        CLOUDY    50  46  87 W12       29.94S
ROSEAU         PTSUNNY   54  48  82 W13G18    29.94S
HALLOCK        CLOUDY    52  46  82 NW14      29.97S
THF RVR FALLS  PTSUNNY   54  46  76 NW12      29.98R
BAUDETTE       PTSUNNY   52  47  83 NW14      29.92R
WASKISH        FAIR      55  48  76 W7        29.93S
CROOKSTON      CLOUDY    54  48  82 NW13      30.00R
STEPHEN NDAWN    N/A     54  45  71 NW12        N/A
GREENBUSH NDAW   N/A     52  45  76 NW12        N/A
$$
  *****  WEATHER ACROSS CENTRAL AND WEST MINNESOTA  *****

CITY           SKY/WX    TMP DP  RH WIND       PRES   REMARKS
FOSSTON        PTSUNNY   50  45  81 W7        29.98S
BEMIDJI        CLOUDY    53  44  71 W10       29.96R
PARK RAPIDS    CLOUDY    52  40  63 W10       29.97S
ELBOW LAKE     CLOUDY    52  43  70 NW13G18   30.04S
WADENA         CLOUDY    50  43  76 W6        29.99S
DETROIT LAKES  FAIR      52  43  71 NW13G22   30.01R
MOORHEAD       DRIZZLE   54  45  71 NW17G23   30.03R
FERGUS FALLS   FAIR      54  43  66 NW14      30.01S
MORRIS MN      PTSUNNY   55  43  62 W9        30.04S
STAPLES        CLOUDY    54  41  62 W12       29.99F
$$
  *****  WEATHER ELSEWHERE ACROSS MINNESOTA  *****

CITY           SKY/WX    TMP DP  RH WIND       PRES   REMARKS
DULUTH         CLOUDY    52  48  86 W14       29.90R
INTRNTL FALLS  CLOUDY    54  48  80 NW6       29.89S
ELY            CLOUDY    52  50  93 W9        29.88R
CLOQUET        CLOUDY    55  45  67 W10       29.92R
WHEATON        FAIR      57  41  54 W12G17    30.06S
BRAINERD       CLOUDY    56  44  64 W10       29.98R
HIBBING        CLOUDY    53  48  83 NW8       29.91S
ALEXANDRIA     CLOUDY    52  43  71 W8        30.03S
SAINT CLOUD    PTSUNNY   58  43  57 W13       30.01R
MINNEAPOLIS    FAIR      60  42  51 NW21      30.01R
$$

  *****  WEATHER ACROSS SOUTH DAKOTA  *****

CITY           SKY/WX    TMP DP  RH WIND       PRES   REMARKS
SIOUX FALLS    FAIR      62  44  51 W10       30.12R
BROOKINGS      PTSUNNY   56  44  64 W8        30.10S
WATERTOWN      CLOUDY    54  42  64 W14       30.07S
HURON          PTSUNNY   63  43  48 W16       30.10F
SISSETON         N/A     55  47  74 NW20      30.05R
ABERDEEN       CLOUDY    55  44  66 NW10      30.10R
MITCHELL       FAIR      63  41  44 W13G21    30.13F
PIERRE         FAIR      59  38  45 NW20      30.18R
MOBRIDGE       FAIR      57  38  48 NW14      30.14R
RAPID CITY     FAIR      65  30  27 NW12      30.26R
$$

  *****  SOME WEATHER IN NEARBY STATES *****

CITY           SKY/WX    TMP DP  RH WIND       PRES   REMARKS
GLASGOW MT     FAIR      54  36  50 SW3       30.30R
GREAT FALLS MT FAIR      53  40  61 SW7       30.35R
CHEYENNE WY    CLOUDY    54  32  43 CALM      30.36R
SCOTTSBLUFF NE CLOUDY    60  39  45 MISG      30.31R
OMAHA NE       FAIR      66  45  46 NW5       30.18R
DES MOINES IA  FAIR      64  45  49 NW9       30.12R
DAVENPORT IA   FAIR      64  52  64 W12       30.04R
CHICAGO IL     FAIR      68  55  63 NW12      29.95R
EAU CLAIRE WI  CLOUDY    57  44  62 W15G21    29.97R
LA CROSSE WI   PTSUNNY   66  50  56 NW13      29.98R
$$

  *****  SOME NATIONAL WEATHER *****

CITY           SKY/WX    TMP DP  RH WIND       PRES   REMARKS
LA GUARDIA NY  PTSUNNY   77  72  84 NW8       29.62R
RALEIGH NC     FAIR      83  73  72 W9        29.94S
ATLANTA GA     LGT RAIN  75  73  93 SW5       30.02F
NEW ORLEANS LA FAIR      83  78  85 SW8       30.02R HX  93
OKLAHOMA CITY  CLOUDY    71  53  52 E10       30.21R
ALBUQUERQUE NM FAIR      71  52  50 E12       30.27R
SALT LAKE CITY FAIR      68  38  33 SE7       30.20R
LOS ANGELES CA CLOUDY    63  61  93 S9        29.90R FOG
BOISE ID       FAIR      61  41  47 S5        30.18R
SEATTLE WA     FAIR      64  53  67 NE3       30.15S
$$

*** WEATHER ACROSS MANITOBA...SASKATCHEWAN AND ONTARIO ***
                ***ONTARIO***

CITY           SKY/WX    TMP DP  RH WIND       PRES   REMARKS
GERALDTON      PTSUNNY   57  52  82 NW5       29.83R
THUNDER BAY    PTSUNNY   61  54  77 CALM      29.82R
SIOUX LOOKOUT  PTSUNNY   55  50  82 CALM      29.86R
TORONTO        MOSUNNY   72  48  43 NW20      29.74R
BIG TROUT LK   CLOUDY    45  37  76 N9        29.98R
PICKLE LAKE    PTSUNNY   55  45  67 N6        29.89S
DRYDEN         LGT RAIN  52  52 100 W6        29.86S
KENORA         LGT RAIN  50  50 100 NW7       29.89R
$$
                *** MANITOBA***

CITY           SKY/WX    TMP DP  RH WIND       PRES   REMARKS
BRANDON        LGT RAIN  48  46  93 NW14G20   30.08R
DAUPHIN        LGT RAIN  50  48  93 N16       30.11R
ISLAND LAKE    PTSUNNY   50  37  62 N9G20     30.06S
PILOT MOUND      N/A     46  45  93 NW17G23     N/A
THE PAS        LGT RAIN  48  45  87 NW8       30.19R
THOMPSON       CLOUDY    54  41  62 NW3       30.12R
WINNIPEG       DRIZZLE   54  52  94 N12G18    29.93R FOG
LYNN LAKE      CLOUDY    54  39  58 NW9       30.15F
CHURCHILL      MOSUNNY   45  39  81 N14G20    30.05R
GILLAM         CLOUDY    54  39  58 N5        30.06R
$$
                ***SASKATCHEWAN***

CITY           SKY/WX    TMP DP  RH WIND       PRES   REMARKS
ESTEVAN        PTSUNNY   46  41  81 NW18G24   30.23R
KINDERSLEY     MOSUNNY   52  45  76 W5        30.27R
LLOYDMINSTER   PTSUNNY   54  46  76 SW5       30.25S
PRINCE ALBERT  MOSUNNY   50  43  76 W6        30.26S
REGINA         PTSUNNY   46  43  87 NW8       30.27S
YORKTON        CLOUDY    46  43  87 NW14G20   30.20R
N. BATTLEFORD  PTSUNNY   48  45  87 S2        30.27S
LA RONGE       PTSUNNY   50  45  81 N3        30.22S
SASKATOON      PTSUNNY   50  41  71 S6        30.27S
SWIFT CURRENT  SUNNY     50  43  76 W9        30.28R
$$
NOTE: THESE ARE AUTOMATED STATIONS WITH LIMITED QUALITY CONTROL
      "FAIR" INDICATES FEW OR NO CLOUDS BELOW 12,000 FEET WITH NO
      SIGNIFICANT WEATHER AND/OR OBSTRUCTIONS TO VISIBILITY.
      SKY/WX - SKY CONDITION AND SIGNIFICANT WEATHER.
      TMP - AIR TEMPERATURE.    DP   - DEWPOINT TEMPERATURE.
      RH  - RELATIVE HUMIDITY.  PRES - PRESSURE.
      HX  - HEAT INDEX.         WCI  - WIND CHILL INDEX.
$




USA.gov is the U.S. government's official web portal to all federal, state and local government web resources and services.